Date,TemperatureHighF,TemperatureAvgF,TemperatureLowF,DewpointHighF,DewpointAvgF,DewpointLowF,HumidityHigh,HumidityAvg,HumidityLow,PressureMaxIn,PressureMinIn,WindSpeedMaxMPH,WindSpeedAvgMPH,GustSpeedMaxMPH,PrecipitationSumIn
2013-2-1,33,29,23,19,13,8,63,50,38,30.08,29.60,13,3,15,0.00
2013-2-2,31,26,18,26,14,6,93,61,42,30.25,30.04,12,2,12,0.00
2013-2-3,34,27,22,27,23,20,93,86,70,30.04,29.67,9,2,9,0.03
2013-2-4,32,26,22,22,14,9,91,62,40,29.94,29.69,13,3,13,0.00
2013-2-5,30,25,23,29,19,12,96,79,62,30.02,29.90,8,1,8,0.00
2013-2-6,41,32,28,32,25,10,98,77,47,30.27,29.89,9,1,10,0.04
2013-2-7,29,25,20,24,12,5,83,57,36,30.51,30.27,10,2,10,0.00
2013-2-8,33,32,28,32,29,23,99,91,81,30.46,29.31,21,4,21,0.00
2013-2-12,46,40,30,32,29,26,84,65,53,29.88,29.70,8,3,14,0.01
2013-2-13,43,34,29,29,26,24,91,76,53,29.87,29.64,7,1,7,0.00
2013-2-14,41,33,27,35,29,24,98,84,53,30.02,29.67,10,1,10,0.19
2013-2-15,48,36,26,40,32,25,99,88,57,30.04,29.93,16,1,16,0.01
2013-2-16,38,33,29,34,32,28,99,96,84,29.94,29.58,16,2,17,0.09
2013-2-17,34,24,19,32,18,5,95,79,45,29.64,29.29,20,5,21,0.00
2013-2-18,32,24,16,9,6,3,60,47,30,30.16,29.63,17,4,19,0.01
2013-2-19,48,37,22,45,30,9,99,77,50,30.16,29.57,12,2,14,0.79
2013-2-20,42,34,26,42,24,12,99,70,45,29.77,29.54,16,3,16,0.00
2013-2-21,35,29,25,20,17,15,72,61,46,30.11,29.77,13,3,13,0.00
2013-2-22,37,33,28,29,26,20,85,75,64,30.35,30.10,12,2,14,0.00
2013-2-23,39,35,30,38,32,28,98,88,76,30.32,29.82,12,1,12,0.30
2013-2-24,43,38,32,42,38,32,99,98,97,29.82,29.57,14,3,18,0.81
2013-2-25,40,33,28,34,30,27,99,90,65,30.23,29.82,11,1,11,0.11
2013-2-26,45,34,24,36,29,23,99,82,53,30.33,30.11,11,1,13,0.00
2013-2-27,44,42,39,44,42,35,99,97,86,30.12,29.53,26,4,26,0.96
2013-2-28,47,40,35,41,38,34,100,95,78,29.63,29.49,7,1,7,0.01